H1 CPF 2 NER 2022 8 11 9 223 01 glonass129 H2 1106402 9129 37868 2022 8 11 0 0 0 2022 8 14 23 45 0 900 1 1 0 0 0 1 H9 10 0 59802 0.00000 0 11176246.394 -13186584.689 18774039.571 10 0 59802 900.00000 0 13187046.525 -14047126.267 16725810.101 10 0 59802 1800.00000 0 14883131.328 -14938728.201 14352943.579 10 0 59802 2700.00000 0 16238275.122 -15804595.200 11701293.500 10 0 59802 3600.00000 0 17238986.727 -16585687.119 8822199.548 10 0 59802 4500.00000 0 17884858.569 -17223318.305 5771503.420 10 0 59802 5400.00000 0 18188376.150 -17661765.938 2608470.055 10 0 59802 6300.00000 0 18174194.664 -17850776.314 -605365.303 10 0 59802 7200.00000 0 17877912.222 -17747861.477 -3807401.472 10 0 59802 8100.00000 0 17344390.944 -17320286.772 -6935202.855 10 0 59802 9000.00000 0 16625697.054 -16546662.616 -9927732.807 10 0 59802 9900.00000 0 15778747.631 -15418070.387 -12726562.883 10 0 59802 10800.00000 0 14862764.841 -13938672.063 -15277032.450 10 0 59802 11700.00000 0 13936647.132 -12125775.708 -17529334.102 10 0 59802 12600.00000 0 13056370.511 -10009352.222 -19439501.790 10 0 59802 13500.00000 0 12272531.739 -7631022.652 -20970281.032 10 0 59802 14400.00000 0 11628139.006 -5042558.157 -22091863.167 10 0 59802 15300.00000 0 11156744.651 -2303955.677 -22782468.793 10 0 59802 16200.00000 0 10880999.454 518829.521 -23028769.020 10 0 59802 17100.00000 0 10811689.572 3356398.918 -22826136.739 10 0 59802 18000.00000 0 10947296.130 6138567.472 -22178723.810 10 0 59802 18900.00000 0 11274094.890 8797050.630 -21099363.773 10 0 59802 19800.00000 0 11766790.241 11268069.390 -19609303.197 10 0 59802 20700.00000 0 12389654.902 13494764.998 -17737768.301 10 0 59802 21600.00000 0 13098125.406 15429323.574 -15521376.633 10 0 59802 22500.00000 0 13840784.271 17034723.548 -13003406.550 10 0 59802 23400.00000 0 14561643.682 18286034.942 -10232939.963 10 0 59802 24300.00000 0 15202633.232 19171218.800 -7263896.043 10 0 59802 25200.00000 0 15706186.040 19691396.114 -4153975.522 10 0 59802 26100.00000 0 16017813.979 19860577.855 -963536.740 10 0 59802 27000.00000 0 16088563.664 19704870.245 2245574.393 10 0 59802 27900.00000 0 15877250.355 19261191.048 5411217.877 10 0 59802 28800.00000 0 15352376.584 18575552.695 8472153.620 10 0 59802 29700.00000 0 14493655.840 17700985.643 11369213.575 10 0 59802 30600.00000 0 13293078.194 16695189.758 14046430.366 10 0 59802 31500.00000 0 11755473.894 15618012.182 16452101.811 10 0 59802 32400.00000 0 9898551.575 14528856.787 18539772.370 10 0 59802 33300.00000 0 7752409.170 13484132.558 20269114.219 10 0 59802 34200.00000 0 5358537.097 12534846.332 21606692.532 10 0 59802 35100.00000 0 2768353.663 11724439.038 22526601.715 10 0 59802 36000.00000 0 41331.504 11086954.530 23010961.493 10 0 59802 36900.00000 0 -2757209.616 10645616.512 23050263.986 10 0 59802 37800.00000 0 -5558554.850 10411872.481 22643565.279 10 0 59802 38700.00000 0 -8293192.310 10384944.750 21798517.390 10 0 59802 39600.00000 0 -10893451.870 10551908.016 20531239.004 10 0 59802 40500.00000 0 -13296077.466 10888291.510 18866025.980 10 0 59802 41400.00000 0 -15444627.679 11359182.182 16834905.234 10 0 59802 42300.00000 0 -17291605.557 11920784.531 14477038.507 10 0 59802 43200.00000 0 -18800229.156 12522373.387 11837985.340 10 0 59802 44100.00000 0 -19945768.382 13108558.993 8968837.436 10 0 59802 45000.00000 0 -20716391.094 13621769.940 5925239.622 10 0 59802 45900.00000 0 -21113481.647 14004849.411 2766315.216 10 0 59802 46800.00000 0 -21151417.022 14203654.509 -446483.825 10 0 59802 47700.00000 0 -20856808.590 14169547.416 -3650579.362 10 0 59802 48600.00000 0 -20267240.538 13861670.890 -6783497.927 10 0 59802 49500.00000 0 -19429557.856 13248909.252 -9784104.658 10 0 59802 50400.00000 0 -18397776.357 12311449.076 -12593814.381 10 0 59802 51300.00000 0 -17230703.972 11041870.777 -15157754.303 10 0 59802 52200.00000 0 -15989375.026 9445722.252 -17425853.626 10 0 59802 53100.00000 0 -14734407.748 7541548.336 -19353836.941 10 0 59802 54000.00000 0 -13523398.560 5360373.304 -20904100.679 10 0 59802 54900.00000 0 -12408464.662 2944657.208 -22046454.396 10 0 59802 55800.00000 0 -11434039.995 346769.636 -22758711.890 10 0 59802 56700.00000 0 -10635018.333 -2372954.931 -23027120.609 10 0 59802 57600.00000 0 -10035321.883 -5148498.216 -22846621.370 10 0 59802 58500.00000 0 -9646955.215 -7910679.545 -22220934.120 10 0 59802 59400.00000 0 -9469583.166 -10589811.601 -21162469.154 10 0 59802 60300.00000 0 -9490648.803 -13118379.301 -19692066.762 10 0 59802 61200.00000 0 -9686024.409 -15433629.912 -17838571.751 10 0 59802 62100.00000 0 -10021165.767 -17479966.856 -15638252.508 10 0 59802 63000.00000 0 -10452718.865 -19211048.398 -13134077.182 10 0 59802 63900.00000 0 -10930509.168 -20591505.056 -10374862.342 10 0 59802 64800.00000 0 -11399827.873 -21598206.153 -7414311.693 10 0 59802 65700.00000 0 -11803917.391 -22221024.968 -4309964.361 10 0 59802 66600.00000 0 -12086550.469 -22463073.068 -1122073.879 10 0 59802 67500.00000 0 -12194593.916 -22340396.696 2087560.053 10 0 59802 68400.00000 0 -12080449.071 -21881150.418 5256784.377 10 0 59802 69300.00000 0 -11704266.805 -21124284.697 8324287.152 10 0 59802 70200.00000 0 -11035844.641 -20117804.030 11230771.257 10 0 59802 71100.00000 0 -10056127.090 -18916669.516 13920085.651 10 0 59802 72000.00000 0 -8758246.991 -17580433.998 16340293.530 10 0 59802 72900.00000 0 -7148064.606 -16170708.320 18444658.310 10 0 59802 73800.00000 0 -5244181.819 -14748563.727 20192530.084 10 0 59802 74700.00000 0 -3077430.228 -13371977.566 21550116.997 10 0 59802 75600.00000 0 -689853.168 -12093427.340 22491128.199 10 0 59802 76500.00000 0 1866777.922 -10957731.889 22997277.170 10 0 59802 77400.00000 0 4532853.434 -10000228.358 23058636.389 10 0 59802 78300.00000 0 7243146.176 -9245359.952 22673836.773 10 0 59802 79200.00000 0 9929273.320 -8705732.897 21850107.643 10 0 59802 80100.00000 0 12522300.310 -8381682.088 20603155.441 10 0 59802 81000.00000 0 14955381.064 -8261364.242 18956882.079 10 0 59802 81900.00000 0 17166326.755 -8321375.818 16942946.403 10 0 59802 82800.00000 0 19099997.396 -8527871.339 14600175.113 10 0 59802 83700.00000 0 20710417.079 -8838136.737 11973832.335 10 0 59802 84600.00000 0 21962524.286 -9202553.031 9114759.913 10 0 59802 85500.00000 0 22833483.012 -9566868.719 6078403.467 10 0 59803 0.00000 0 23313498.361 -9874685.434 2923742.236 10 0 59803 900.00000 0 23406100.877 -10070051.779 -287858.806 10 0 59803 1800.00000 0 23127885.364 -10100054.223 -3493847.666 10 0 59803 2700.00000 0 22507714.775 -9917294.190 -6631716.539 10 0 59803 3600.00000 0 21585421.080 -9482143.698 -9640235.907 10 0 59803 4500.00000 0 20410057.924 -8764681.500 -12460667.341 10 0 59803 5400.00000 0 19037779.124 -7746224.910 -15037929.144 10 0 59803 6300.00000 0 17529433.447 -6420389.687 -17321690.105 10 0 59803 7200.00000 0 15947978.672 -4793630.889 -19267368.150 10 0 59803 8100.00000 0 14355825.625 -2885239.902 -20837012.958 10 0 59803 9000.00000 0 12812225.791 -726796.458 -22000054.263 10 0 59803 9900.00000 0 11370814.039 1638901.909 -22733900.623 10 0 59803 10800.00000 0 10077410.749 4159388.235 -23024376.965 10 0 59803 11700.00000 0 8968176.237 6774487.078 -22865992.747 10 0 59803 12600.00000 0 8068194.730 9418605.288 -22262036.274 10 0 59803 13500.00000 0 7390546.374 12023256.135 -21224494.439 10 0 59803 14400.00000 0 6935904.584 14519710.775 -19773800.658 10 0 59803 15300.00000 0 6692673.499 16841665.882 -17938417.316 10 0 59803 16200.00000 0 6637657.230 18927816.208 -15754262.202 10 0 59803 17100.00000 0 6737230.092 20724225.212 -13263991.412 10 0 59803 18000.00000 0 6948955.993 22186395.738 -10516153.913 10 0 59803 18900.00000 0 7223586.463 23280955.856 -7564235.294 10 0 59803 19800.00000 0 7507351.214 23986891.367 -4465610.078 10 0 59803 20700.00000 0 7744443.321 24296275.648 -1280423.709 10 0 59803 21600.00000 0 7879593.422 24214468.747 1929573.807 10 0 59803 22500.00000 0 7860624.192 23759779.717 5102219.933 10 0 59803 23400.00000 0 7640877.671 22962608.432 8176134.436 10 0 59803 24300.00000 0 7181413.839 21864104.495 11091894.573 10 0 59803 25200.00000 0 6452888.727 20514400.466 13793168.891 10 0 59803 26100.00000 0 5437033.935 18970493.816 16227788.946 10 0 59803 27000.00000 0 4127676.062 17293865.946 18348739.790 10 0 59803 27900.00000 0 2531253.496 15547936.894 20115051.757 10 0 59803 28800.00000 0 666808.634 13795460.669 21492577.916 10 0 59803 29700.00000 0 -1434545.153 12095968.153 22454643.719 10 0 59803 30600.00000 0 -3730661.233 10503362.309 22982557.508 10 0 59803 31500.00000 0 -6169861.071 9063764.177 23065972.761 10 0 59803 32400.00000 0 -8692839.468 7813697.879 22703095.368 10 0 59803 33300.00000 0 -11234897.443 6778689.229 21900731.542 10 0 59803 34200.00000 0 -13728412.824 5972335.912 20674174.529 10 0 59803 35100.00000 0 -16105448.583 5395888.135 19046930.791 10 0 59803 36000.00000 0 -18300392.682 5038357.917 17050289.076 10 0 59803 36900.00000 0 -20252521.007 4877153.541 14722738.550 10 0 59803 37800.00000 0 -21908377.348 4879213.900 12109245.064 10 0 59803 38700.00000 0 -23223871.011 5002596.355 9260397.455 10 0 59803 39600.00000 0 -24166003.455 5198452.466 6231438.833 10 0 59803 40500.00000 0 -24714150.237 5413308.870 3081200.396 10 0 59803 41400.00000 0 -24860842.617 5591557.037 -129042.064 10 0 59803 42300.00000 0 -24612014.023 5678045.951 -3336766.552 10 0 59803 43200.00000 0 -23986699.232 5620666.528 -6479434.083 10 0 59803 44100.00000 0 -23016197.430 5372816.277 -9495723.460 10 0 59803 45000.00000 0 -21742733.807 4895637.274 -12326745.776 10 0 59803 45900.00000 0 -20217675.726 4159929.922 -14917212.967 10 0 59803 46800.00000 0 -18499379.090 3147658.652 -17216535.631 10 0 59803 47700.00000 0 -16650756.859 1852983.340 -19179826.854 10 0 59803 48600.00000 0 -14736673.544 282770.741 -20768790.955 10 0 59803 49500.00000 0 -12821276.845 -1543437.258 -21952478.762 10 0 59803 50400.00000 0 -10965380.112 -3593998.201 -22707894.032 10 0 59803 51300.00000 0 -9224006.754 -5826262.699 -23020439.140 10 0 59803 52200.00000 0 -7644200.286 -8188141.157 -22884191.721 10 0 59803 53100.00000 0 -6263191.868 -10620077.327 -22302007.611 10 0 59803 54000.00000 0 -5107001.395 -13057345.418 -21285449.151 10 0 59803 54900.00000 0 -4189529.308 -15432573.896 -19854541.482 10 0 59803 55800.00000 0 -3512175.119 -17678389.823 -18037362.955 10 0 59803 56700.00000 0 -3063996.074 -19730072.912 -15869479.006 10 0 59803 57600.00000 0 -2822396.404 -21528108.515 -13393231.812 10 0 59803 58500.00000 0 -2754315.312 -23020533.336 -10656900.825 10 0 59803 59400.00000 0 -2817860.946 -24164976.888 -7713751.563 10 0 59803 60300.00000 0 -2964319.125 -24930314.840 -4620991.995 10 0 59803 61200.00000 0 -3140450.326 -25297866.863 -1438657.505 10 0 59803 62100.00000 0 -3290976.751 -25262090.970 1771553.577 10 0 59803 63000.00000 0 -3361153.920 -24830747.391 4947471.271 10 0 59803 63900.00000 0 -3299318.290 -24024527.096 8027649.149 10 0 59803 64800.00000 0 -3059303.880 -22876162.213 10952541.002 10 0 59803 65700.00000 0 -2602626.870 -21429056.731 13665637.179 10 0 59803 66600.00000 0 -1900347.098 -19735495.371 16114539.826 10 0 59803 67500.00000 0 -934529.038 -17854505.401 18251957.825 10 0 59803 68400.00000 0 300758.589 -15849459.935 20036603.841 10 0 59803 69300.00000 0 1798946.381 -13785521.435 21433977.800 10 0 59803 70200.00000 0 3540992.356 -11727030.205 22417023.151 10 0 59803 71100.00000 0 5495934.693 -9734944.622 22966644.544 10 0 59803 72000.00000 0 7621947.863 -7864437.665 23072077.612 10 0 59803 72900.00000 0 9867860.646 -6162747.875 22731104.071 10 0 59803 73800.00000 0 12175075.616 -4667372.642 21950107.588 10 0 59803 74700.00000 0 14479813.118 -3404678.142 20743968.460 10 0 59803 75600.00000 0 16715589.200 -2388983.361 19135797.646 10 0 59803 76500.00000 0 18815826.797 -1622156.642 17156513.429 10 0 59803 77400.00000 0 20716493.146 -1093742.273 14844266.732 10 0 59803 78300.00000 0 22358654.523 -781612.868 12243724.042 10 0 59803 79200.00000 0 23690841.818 -653121.282 9405219.708 10 0 59803 80100.00000 0 24671127.346 -666704.785 6383792.412 10 0 59803 81000.00000 0 25268824.536 -773874.650 3238123.276 10 0 59803 81900.00000 0 25465737.346 -921507.473 29395.611 10 0 59803 82800.00000 0 25256904.698 -1054341.024 -3179901.335 10 0 59803 83700.00000 0 24650806.478 -1117567.955 -6327200.629 10 0 59803 84600.00000 0 23669020.597 -1059415.754 -9351092.764 10 0 59803 85500.00000 0 22345344.105 -833601.481 -12192541.681 10 0 59804 0.00000 0 20724414.732 -401554.688 -14796055.907 10 0 59804 900.00000 0 18859889.964 265688.635 -17110791.321 10 0 59804 1800.00000 0 16812263.068 1186003.163 -19091558.684 10 0 59804 2700.00000 0 14646406.104 2365168.198 -20699719.464 10 0 59804 3600.00000 0 12428946.722 3796382.228 -21903947.816 10 0 59804 4500.00000 0 10225589.453 5460319.957 -22680844.639 10 0 59804 5400.00000 0 8098495.269 7325730.012 -23015391.393 10 0 59804 6300.00000 0 6103830.040 9350548.299 -22901235.197 10 0 59804 7200.00000 0 4289584.867 11483479.804 -22340800.344 10 0 59804 8100.00000 0 2693759.064 13665981.818 -21345225.142 10 0 59804 9000.00000 0 1342980.622 15834564.683 -19934126.547 10 0 59804 9900.00000 0 251620.076 17923312.806 -18135198.515 10 0 59804 10800.00000 0 -578567.624 19866519.843 -15983653.302 10 0 59804 11700.00000 0 -1158261.130 21601327.486 -13521517.881 10 0 59804 12600.00000 0 -1509861.277 23070257.467 -10796800.443 10 0 59804 13500.00000 0 -1666283.238 24223531.416 -7862544.251 10 0 59804 14400.00000 0 -1669305.847 25021082.469 -4775788.126 10 0 59804 15300.00000 0 -1567549.962 25434175.794 -1596454.442 10 0 59804 16200.00000 0 -1414172.880 25446571.890 1613813.389 10 0 59804 17100.00000 0 -1264377.134 25055185.777 4792841.381 10 0 59804 18000.00000 0 -1172839.215 24270216.269 7879120.471 10 0 59804 18900.00000 0 -1191166.530 23114741.549 10812984.573 10 0 59804 19800.00000 0 -1365489.177 21623799.129 13537749.360 10 0 59804 20700.00000 0 -1734287.073 19842989.376 16000790.967 10 0 59804 21600.00000 0 -2326542.894 17826660.982 18154545.290 10 0 59804 22500.00000 0 -3160297.631 15635753.473 19957410.275 10 0 59804 23400.00000 0 -4241668.916 13335385.532 21374535.331 10 0 59804 24300.00000 0 -5564373.321 10992287.810 22378484.188 10 0 59804 25200.00000 0 -7109773.391 8672184.958 22949759.654 10 0 59804 26100.00000 0 -8847448.819 6437233.578 23077180.898 10 0 59804 27000.00000 0 -10736269.961 4343620.391 22758106.294 10 0 59804 27900.00000 0 -12725931.500 2439418.562 21998497.215 10 0 59804 28800.00000 0 -14758885.062 762789.963 20812820.627 10 0 59804 29700.00000 0 -16772593.112 -659392.731 19223790.975 10 0 59804 30600.00000 0 -18702012.781 -1812446.990 17261954.427 10 0 59804 31500.00000 0 -20482208.025 -2694266.475 14965121.436 10 0 59804 32400.00000 0 -22050982.497 -3315175.358 12377656.394 10 0 59804 33300.00000 0 -23351423.613 -3697256.008 9549636.015 10 0 59804 34200.00000 0 -24334250.938 -3873177.191 6535891.119 10 0 59804 35100.00000 0 -24959869.346 -3884571.242 3394949.119 10 0 59804 36000.00000 0 -25200038.941 -3780028.109 187897.144 10 0 59804 36900.00000 0 -25039089.311 -3612791.053 -3022811.997 10 0 59804 37800.00000 0 -24474624.573 -3438252.122 -6174587.043 10 0 59804 38700.00000 0 -23517687.285 -3311354.848 -9205933.621 10 0 59804 39600.00000 0 -22192372.372 -3284016.054 -12057671.779 10 0 59804 40500.00000 0 -20534906.000 -3402678.380 -14674110.101 10 0 59804 41400.00000 0 -18592227.303 -3706099.756 -17004151.480 10 0 59804 42300.00000 0 -16420132.773 -4223475.971 -19002307.093 10 0 59804 43200.00000 0 -14081061.987 -4972978.145 -20629597.300 10 0 59804 44100.00000 0 -11641618.563 -5960768.787 -21854320.774 10 0 59804 45000.00000 0 -9169931.672 -7180539.324 -22652676.147 10 0 59804 45900.00000 0 -6732969.899 -8613589.408 -23009223.978 10 0 59804 46800.00000 0 -4393920.840 -10229444.860 -22917180.330 10 0 59804 47700.00000 0 -2209746.608 -11986987.917 -22378536.949 10 0 59804 48600.00000 0 -229017.309 -13836051.585 -21404006.729 10 0 59804 49500.00000 0 1509887.844 -15719410.293 -20012796.757 10 0 59804 50400.00000 0 2980138.043 -17575082.230 -18232214.702 10 0 59804 51300.00000 0 4167312.522 -19338845.991 -16097117.602 10 0 59804 52200.00000 0 5069733.006 -20946865.349 -13649215.093 10 0 59804 53100.00000 0 5698256.069 -22338311.790 -10936241.915 10 0 59804 54000.00000 0 6075537.370 -23457875.024 -8011016.876 10 0 59804 54900.00000 0 6234801.768 -24258056.802 -4930407.439 10 0 59804 55800.00000 0 6218173.755 -24701152.821 -1754220.774 10 0 59804 56700.00000 0 6074640.796 -24760840.982 1455956.804 10 0 59804 57600.00000 0 5857736.986 -24423310.941 4637949.466 10 0 59804 58500.00000 0 5623045.572 -23687889.217 7730187.653 10 0 59804 59400.00000 0 5425625.868 -22567135.159 10672887.505 10 0 59804 60300.00000 0 5317472.677 -21086404.878 13409192.091 10 0 59804 61200.00000 0 5345114.405 -19282902.171 15886253.520 10 0 59804 62100.00000 0 5547449.947 -17204256.169 18056236.600 10 0 59804 63000.00000 0 5953914.223 -14906684.560 19877226.294 10 0 59804 63900.00000 0 6583048.544 -12452817.853 21314023.040 10 0 59804 64800.00000 0 7441535.357 -9909273.536 22338812.164 10 0 59804 65700.00000 0 8523737.970 -7344078.843 22931695.698 10 0 59804 66600.00000 0 9811765.322 -4824046.963 23081077.142 10 0 59804 67500.00000 0 11276060.596 -2412213.207 22783892.061 10 0 59804 68400.00000 0 12876491.220 -165435.407 22045679.797 10 0 59804 69300.00000 0 14563897.216 1867743.535 20880494.009 10 0 59804 70200.00000 0 16282035.972 3648883.408 19310652.399 10 0 59804 71100.00000 0 17969844.909 5151011.072 17366328.550 10 0 59804 72000.00000 0 19563929.722 6359504.586 15084991.719 10 0 59804 72900.00000 0 21001175.861 7272459.750 12510703.199 10 0 59804 73800.00000 0 22221374.871 7900522.905 9693280.762 10 0 59804 74700.00000 0 23169755.497 8266195.913 6687345.733 10 0 59804 75600.00000 0 23799312.541 8402641.604 3551269.863 10 0 59804 76500.00000 0 24072834.001 8352039.284 346041.827 10 0 59804 77400.00000 0 23964539.007 8163559.373 -2865924.527 10 0 59804 78300.00000 0 23461255.093 7891043.165 -6022016.343 10 0 59804 79200.00000 0 22563082.654 7590486.808 -9060657.227 10 0 59804 80100.00000 0 21283516.163 7317437.577 -11922526.198 10 0 59804 81000.00000 0 19649015.198 7124414.797 -14551734.458 10 0 59804 81900.00000 0 17698041.911 7058466.967 -16896935.052 10 0 59804 82800.00000 0 15479604.907 7158971.001 -18912341.856 10 0 59804 83700.00000 0 13051370.751 7455768.983 -20558636.489 10 0 59804 84600.00000 0 10477422.956 7967723.221 -21803744.334 10 0 59804 85500.00000 0 7825763.492 8701752.022 -22623463.783 10 0 59805 0.00000 0 5165662.688 9652387.693 -23001936.296 10 0 59805 900.00000 0 2564968.021 10801876.197 -22931948.524 10 0 59805 1800.00000 0 87488.590 12120812.650 -22415060.872 10 0 59805 2700.00000 0 -2209440.077 13569286.864 -21461561.717 10 0 59805 3600.00000 0 -4277106.098 15098488.503 -20090248.750 10 0 59805 4500.00000 0 -6077198.960 16652703.631 -18328043.369 10 0 59805 5400.00000 0 -7583142.236 18171617.548 -16209446.943 10 0 59805 6300.00000 0 -8780928.103 19592826.198 -13775850.857 10 0 59805 7200.00000 0 -9669421.551 20854449.961 -11074715.050 10 0 59805 8100.00000 0 -10260124.767 21897739.787 -8158632.110 10 0 59805 9000.00000 0 -10576414.779 22669566.372 -5084296.005 10 0 59805 9900.00000 0 -10652289.347 23124688.414 -1911396.232 10 0 59805 10800.00000 0 -10530676.487 23227705.666 1298540.749 10 0 59805 11700.00000 0 -10261380.800 22954616.056 4483340.270 10 0 59805 12600.00000 0 -9898754.438 22293912.878 7581375.466 10 0 59805 13500.00000 0 -9499191.489 21247177.407 10532748.041 10 0 59805 14400.00000 0 -9118551.285 19829143.207 13280431.856 10 0 59805 15300.00000 0 -8809618.508 18067230.188 15771358.413 10 0 59805 16200.00000 0 -8619705.980 16000568.101 17957424.782 10 0 59805 17100.00000 0 -8588499.709 13678549.805 19796406.163 10 0 59805 18000.00000 0 -8746235.541 11158973.602 21252757.052 10 0 59805 18900.00000 0 -9112283.014 8505850.329 22298287.115 10 0 59805 19800.00000 0 -9694195.362 5786964.212 22912700.001 10 0 59805 20700.00000 0 -10487265.616 3071286.439 23083985.495 10 0 59805 21600.00000 0 -11474608.246 426346.208 22808657.803 10 0 59805 22500.00000 0 -12627764.456 -2084334.127 22091835.110 10 0 59805 23400.00000 0 -13907807.849 -4403635.399 20947158.022 10 0 59805 24300.00000 0 -15266906.692 -6482971.659 19396547.088 10 0 59805 25200.00000 0 -16650279.936 -8284066.369 17469802.258 10 0 59805 26100.00000 0 -17998467.487 -9780301.179 15204049.910 10 0 59805 27000.00000 0 -19249821.565 -10957580.850 12643045.984 10 0 59805 27900.00000 0 -20343115.963 -11814677.520 9836346.572 10 0 59805 28800.00000 0 -21220164.086 -12363038.854 6838360.360 10 0 59805 29700.00000 0 -21828335.330 -12626067.080 3707300.005 10 0 59805 30600.00000 0 -22122862.645 -12637898.342 504052.090 10 0 59805 31500.00000 0 -22068842.088 -12441733.162 -2709012.256 10 0 59805 32400.00000 0 -21642837.625 -12087788.514 -5869262.373 10 0 59805 33300.00000 0 -20834020.751 -11630958.570 -8915043.602 10 0 59805 34200.00000 0 -19644794.277 -11128284.316 -11786897.588 10 0 59805 35100.00000 0 -18090871.558 -10636340.806 -14428741.637 10 0 59805 36000.00000 0 -16200805.895 -10208654.726 -16788982.150 10 0 59805 36900.00000 0 -14014988.813 -9893263.907 -18821538.531 10 0 59805 37800.00000 0 -11584158.728 -9730524.217 -20486756.004 10 0 59805 38700.00000 0 -8967482.723 -9751258.547 -21752188.441 10 0 59805 39600.00000 0 -6230292.464 -9975327.524 -22593235.131 10 0 59805 40500.00000 0 -3441569.941 -10410683.259 -22993618.949 10 0 59805 41400.00000 0 -671289.093 -11052946.333 -22945696.852 10 0 59805 42300.00000 0 2012274.707 -11885523.538 -22450597.305 10 0 59805 43200.00000 0 4545154.621 -12880260.611 -21518182.974 10 0 59805 44100.00000 0 6870112.941 -13998601.294 -20166840.574 10 0 59805 45000.00000 0 8938771.975 -15193202.484 -18423103.344 10 0 59805 45900.00000 0 10713367.712 -16409936.072 -16321114.851 10 0 59805 46800.00000 0 12168055.095 -17590191.903 -13901945.902 10 0 59805 47700.00000 0 13289712.849 -18673383.859 -11212779.143 10 0 59805 48600.00000 0 14078217.192 -19599552.928 -8305978.319 10 0 59805 49500.00000 0 14546176.103 -20311957.501 -5238061.187 10 0 59805 50400.00000 0 14718138.353 -20759542.058 -2068596.796 10 0 59805 51300.00000 0 14629313.372 -20899181.076 1140951.038 10 0 59805 52200.00000 0 14323858.143 -20697604.694 4328411.538 10 0 59805 53100.00000 0 13852804.893 -20132926.427 7432103.171 10 0 59805 54000.00000 0 13271717.880 -19195709.935 10392015.667 10 0 59805 54900.00000 0 12638178.181 -17889531.165 13150955.949 10 0 59805 55800.00000 0 12009201.980 -16231013.102 15655636.939 10 0 59805 56700.00000 0 11438700.023 -14249331.920 17857689.737 10 0 59805 57600.00000 0 10975083.771 -11985214.882 19714581.265 10 0 59805 58500.00000 0 10659117.375 -9489470.882 21190421.265 10 0 59805 59400.00000 0 10522104.289 -6821113.256 22256644.640 10 0 59805 60300.00000 0 10584483.586 -4045150.807 22892557.252 10 0 59805 61200.00000 0 10854894.295 -1230136.418 23085735.481 10 0 59805 62100.00000 0 11329747.107 1554427.760 22832272.208 10 0 59805 63000.00000 0 11993322.216 4240723.543 22136864.245 10 0 59805 63900.00000 0 12818390.663 6765181.461 21012738.688 10 0 59805 64800.00000 0 13767335.130 9070872.610 19481418.281 10 0 59805 65700.00000 0 14793725.516 11109629.603 17572328.471 10 0 59805 66600.00000 0 15844285.482 12843809.059 15322251.703 10 0 59805 67500.00000 0 16861169.547 14247622.280 12774637.302 10 0 59805 68400.00000 0 17784456.608 15307978.039 9978778.211 10 0 59805 69300.00000 0 18554755.863 16024801.221 6988868.790 10 0 59805 70200.00000 0 19115815.433 16410812.831 3862960.686 10 0 59805 71100.00000 0 19417022.910 16490779.468 661836.282 10 0 59805 72000.00000 0 19415690.667 16300262.950 -2552178.304 10 0 59805 72900.00000 0 19079027.241 15883922.368 -5716436.998 10 0 59805 73800.00000 0 18385708.815 15293440.411 -8769209.338 10 0 59805 74700.00000 0 17326981.683 14585162.299 -11650902.038 10 0 59805 75600.00000 0 15907246.448 13817548.534 -14305240.870 10 0 59805 76500.00000 0 14144096.988 13048550.975 -16680387.866 10 0 59805 77400.00000 0 12067810.827 12333025.266 -18729970.098 10 0 59805 78300.00000 0 9720311.201 11720291.134 -20413998.436 10 0 59805 79200.00000 0 7153643.973 11251945.569 -21699657.150 10 0 59805 80100.00000 0 4428033.459 10960022.766 -22561948.214 10 0 59805 81000.00000 0 1609599.153 10865579.471 -22984177.527 10 0 59805 81900.00000 0 -1232170.368 10977765.742 -22958273.835 10 0 59805 82800.00000 0 -4027079.903 11293420.023 -22484934.739 10 0 59805 83700.00000 0 -6706914.743 11797204.674 -21573597.965 10 0 59805 84600.00000 0 -9208040.125 12462274.947 -20242239.611 10 0 59805 85500.00000 0 -11473804.804 13251451.543 -18517004.666 99